Date String (YYYY-MM-DD hh:mm:ss) UTC,Instrument flags,Ambient pressure (hPa),Sample flow (lpm),Bypass flow (lpm),Sample temperature (°C),Ambient temperature (°C),ASC tube jacket temperature (°C),LED temperature (°C),Box temperature (°C),Sample RH (%),Span deviation,Mass concentration (μg/m³),Mass concentration (μg/m³),Mass concentration (μg/m³)
DateTimeUTC,F1_M11,P_M11,Q1_M11,Q2_M11,T1_M11,T2_M11,T3_M11,T4_M11,T5_M11,U1_M11,ZSPAN_M11,X0_M11,X2_M11,X1_M11
2023-01-20 05:00:00,,0825.4,5.00,0.00,22.5,20.9,00.0,31.3,24.1,09.9,0000.1,0025.94,0014.06,0012.81
2023-01-20 05:01:00,,0825.3,5.00,0.00,22.4,20.8,00.0,31.3,24.1,09.9,-000.3,0025.70,0013.98,0012.74
2023-01-20 05:02:00,,0825.3,5.01,0.00,22.4,21.1,00.0,31.3,24.1,09.9,-000.0,0025.11,0013.88,0012.65
2023-01-20 05:03:00,,0825.4,5.00,0.00,22.5,22.0,00.0,31.2,24.4,09.9,-000.3,0025.04,0013.81,0012.60
2023-01-20 05:04:00,,0825.3,5.01,0.00,22.6,22.8,00.0,31.3,24.6,09.8,-000.1,0024.96,0013.69,0012.57
2023-01-20 05:05:00,,0825.3,4.98,0.00,22.7,22.8,00.0,31.3,24.7,09.8,0000.5,0025.24,0013.63,0012.53
2023-01-20 05:06:00,,0825.3,5.02,0.00,22.7,22.4,00.0,31.3,24.6,09.8,0000.9,0024.87,0013.57,0012.49
2023-01-20 05:07:00,,0825.3,5.00,0.00,22.7,22.0,00.0,31.4,24.5,09.8,0000.8,0024.41,0013.48,0012.43
2023-01-20 05:08:00,,0825.3,5.00,0.00,22.7,21.7,00.0,31.4,24.5,09.8,0000.8,0023.77,0013.41,0012.39
2023-01-20 05:09:00,,0825.3,5.00,0.00,22.7,21.5,00.0,31.4,24.4,09.8,0000.6,0023.58,0013.37,0012.37
2023-01-20 05:10:00,,0825.3,5.01,0.00,22.6,21.3,00.0,31.4,24.4,09.8,0000.7,0022.88,0013.33,0012.35
2023-01-20 05:11:00,,0825.3,5.02,0.00,22.6,21.2,00.0,31.4,24.3,09.8,0001.1,0022.34,0013.29,0012.35
2023-01-20 05:12:00,,0825.3,5.00,0.00,22.6,21.1,00.0,31.4,24.3,09.8,0001.8,0021.98,0013.28,0012.35
2023-01-20 05:13:00,,0825.3,4.99,0.00,22.6,21.1,00.0,31.4,24.3,09.8,0002.1,0021.91,0013.29,0012.34
2023-01-20 05:14:00,,0825.3,4.99,0.00,22.6,21.0,00.0,31.4,24.3,09.9,0002.2,0021.90,0013.28,0012.33
2023-01-20 05:15:00,,0825.3,5.02,0.00,22.5,20.9,00.0,31.3,24.2,09.9,0001.4,0021.70,0013.28,0012.31
2023-01-20 05:16:00,,0825.3,5.02,0.00,22.5,20.9,00.0,31.3,24.2,09.9,0001.1,0021.43,0013.24,0012.25
2023-01-20 05:17:00,,0825.3,4.99,0.00,22.5,20.9,00.0,31.3,24.2,09.9,0001.2,0021.24,0013.18,0012.17
2023-01-20 05:18:00,,0825.4,5.00,0.00,22.5,20.9,00.0,31.3,24.2,09.9,0001.1,0020.51,0013.13,0012.10
2023-01-20 05:19:00,,0825.4,4.99,0.00,22.4,20.8,00.0,31.3,24.1,09.9,0000.7,0020.45,0013.10,0012.04
2023-01-20 05:20:00,,0825.4,5.00,0.00,22.4,20.8,00.0,31.3,24.1,09.9,0001.1,0020.63,0013.09,0012.02
2023-01-20 05:21:00,,0825.5,5.00,0.00,22.4,20.8,00.0,31.3,24.1,10.0,0001.3,0020.62,0013.09,0012.02
2023-01-20 05:22:00,,0825.5,5.01,0.00,22.4,21.3,00.0,31.2,24.2,10.0,0001.2,0020.30,0013.04,0011.96
2023-01-20 05:23:00,,0825.5,5.00,0.00,22.5,22.2,00.0,31.2,24.4,09.9,0000.8,0020.10,0012.97,0011.87
2023-01-20 05:24:00,,0825.5,4.99,0.00,22.6,22.9,00.0,31.3,24.6,09.9,0000.4,0020.23,0012.87,0011.79
2023-01-20 05:25:00,,0825.5,4.99,0.00,22.7,22.7,00.0,31.3,24.6,09.8,0000.3,0020.61,0012.82,0011.73
2023-01-20 05:26:00,,0825.5,4.98,0.00,22.7,22.3,00.0,31.3,24.6,09.8,0000.4,0020.81,0012.73,0011.68
2023-01-20 05:27:00,,0825.5,5.01,0.00,22.7,21.9,00.0,31.3,24.5,09.8,0000.6,0021.16,0012.72,0011.66
2023-01-20 05:28:00,,0825.4,5.00,0.00,22.6,21.6,00.0,31.4,24.4,09.8,0000.9,0021.35,0012.76,0011.66
2023-01-20 05:29:00,,0825.5,4.98,0.00,22.6,21.3,00.0,31.4,24.4,09.8,0001.5,0021.49,0012.74,0011.64
2023-01-20 05:30:00,,0825.4,5.00,0.00,22.6,21.2,00.0,31.4,24.3,09.8,0002.1,0020.85,0012.65,0011.63
2023-01-20 05:31:00,,0825.4,5.01,0.00,22.6,21.1,00.0,31.4,24.3,09.8,0002.1,0020.95,0012.59,0011.55
2023-01-20 05:32:00,,0825.5,5.01,0.00,22.6,21.0,00.0,31.3,24.2,09.8,0002.2,0021.25,0012.55,0011.45
2023-01-20 05:33:00,,0825.5,5.00,0.00,22.5,21.0,00.0,31.3,24.2,09.9,0002.2,0021.40,0012.49,0011.42
2023-01-20 05:34:00,,0825.5,5.00,0.00,22.5,20.9,00.0,31.3,24.2,09.9,0002.4,0021.56,0012.52,0011.48
2023-01-20 05:35:00,,0825.5,4.98,0.00,22.5,20.9,00.0,31.3,24.1,09.9,0002.9,0022.82,0012.61,0011.53
2023-01-20 05:36:00,,0825.5,5.01,0.00,22.4,20.8,00.0,31.3,24.1,09.9,0002.7,0022.63,0012.67,0011.57
2023-01-20 05:37:00,,0825.5,5.01,0.00,22.4,20.7,00.0,31.3,24.0,09.9,0003.1,0022.55,0012.67,0011.54
2023-01-20 05:38:00,,0825.5,4.99,0.00,22.4,20.7,00.0,31.3,24.0,10.0,0003.2,0023.01,0012.63,0011.50
2023-01-20 05:39:00,,0825.5,5.00,0.00,22.3,20.6,00.0,31.2,24.0,10.0,0002.8,0022.89,0012.56,0011.47
2023-01-20 05:40:00,,0825.5,5.00,0.00,22.3,20.5,00.0,31.2,23.9,10.0,0002.2,0022.94,0012.51,0011.43
2023-01-20 05:41:00,,0825.5,5.00,0.00,22.3,20.9,00.0,31.2,24.0,10.0,0001.6,0022.89,0012.44,0011.39
2023-01-20 05:42:00,,0825.5,4.99,0.00,22.4,22.0,00.0,31.2,24.2,10.0,0001.3,0022.73,0012.41,0011.35
2023-01-20 05:43:00,,0825.6,5.00,0.00,22.5,22.8,00.0,31.2,24.5,09.9,0000.3,0022.50,0012.35,0011.31
2023-01-20 05:44:00,,0825.5,5.00,0.00,22.6,22.8,00.0,31.2,24.6,09.8,-000.8,0022.95,0012.25,0011.24
2023-01-20 05:45:00,,0825.5,4.99,0.00,22.6,22.3,00.0,31.3,24.5,09.8,-000.9,0023.40,0012.16,0011.14
2023-01-20 05:46:00,,0825.5,5.03,0.00,22.6,21.9,00.0,31.3,24.4,09.8,-001.2,0021.92,0012.08,0011.07
2023-01-20 05:47:00,,0825.5,4.99,0.00,22.6,21.6,00.0,31.3,24.3,09.8,-000.7,0022.24,0012.00,0010.98
2023-01-20 05:48:00,,0825.5,4.98,0.00,22.6,21.4,00.0,31.3,24.3,09.8,-000.9,0022.57,0011.94,0010.95
2023-01-20 05:49:00,,0825.5,5.01,0.00,22.5,21.3,00.0,31.3,24.3,09.8,-000.9,0021.60,0011.91,0010.93
2023-01-20 05:50:00,,0825.4,5.00,0.00,22.5,21.2,00.0,31.3,24.2,09.8,-000.6,0021.32,0011.90,0010.92
2023-01-20 05:51:00,,0825.4,5.00,0.00,22.5,21.1,00.0,31.3,24.2,09.8,-000.6,0021.32,0011.94,0010.94
2023-01-20 05:52:00,,0825.4,4.99,0.00,22.5,21.0,00.0,31.3,24.2,09.8,-000.6,0021.59,0011.98,0010.96
2023-01-20 05:53:00,,0825.4,4.98,0.00,22.5,21.0,00.0,31.3,24.2,09.8,-000.5,0022.69,0012.02,0011.00
2023-01-20 05:54:00,,0825.4,5.00,0.00,22.5,21.0,00.0,31.3,24.2,09.8,-000.2,0022.92,0012.03,0011.01
2023-01-20 05:55:00,,0825.4,5.00,0.00,22.5,21.0,00.0,31.3,24.2,09.8,0000.7,0022.47,0012.09,0011.02
2023-01-20 05:56:00,,0825.4,5.00,0.00,22.4,21.0,00.0,31.3,24.2,09.7,0000.4,0021.95,0012.09,0011.03
2023-01-20 05:57:00,,0825.4,5.01,0.00,22.4,21.0,00.0,31.3,24.1,09.6,0001.2,0021.78,0012.00,0010.95
2023-01-20 05:58:00,,0825.4,5.00,0.00,22.4,21.0,00.0,31.3,24.1,09.6,0002.0,0021.07,0011.91,0010.92
2023-01-20 05:59:00,,0825.4,5.01,0.00,22.4,21.0,00.0,31.3,24.1,09.7,0003.2,0020.39,0011.83,0010.89
